[[{"header":{"parameterUnit":"m.s-1","parameterCategory":1,"la1":30.2991,"la2":30.254,"lo1":-89.0895,"lo2":-89.0444,"dy":0.0017,"dx":0.0017,"nx":28,"ny":28,"refTime":"2025-01-10T09:00:00:Z","depth":0,"parameterNumber":2,"parameterNumberName":"U-component_of_WINDS"},"data":[0,0,0,0,0,0,0,0,0,0,0,0,0,0,0,0,0,0,0,0,0,0,0,0,0,0,0,0,0,0,0,0,0,0,0,0,0,0,0,0,0,0,0,0,0,0,0,0,0,0,0,0,0,0,0,0,0,0,5.2706,5.271,0,5.3043,5.3047,5.3051,5.3016,5.3011,5.3005,5.3,5.336,5.3374,5.3388,0,0,0,0,0,0,0,0,0,0,0,0,0,5.2047,5.2059,5.2706,5.271,5.2714,5.3043,5.3048,5.3052,5.3017,5.301,5.3004,5.2998,5.3355,5.3372,5.339,0,0,0,0,0,0,0,0,0,0,0,0,0,5.2354,5.2063,5.2705,5.2736,5.2742,5.3042,5.3048,5.3053,5.3018,5.301,5.3002,5.2995,5.3349,5.337,5.3392,5.3687,0,0,5.3459,5.3468,0,0,0,0,0,0,0,0,5.2337,5.2379,5.2727,5.2734,5.2742,5.2979,5.2947,5.3266,5.302,5.2914,5.3,5.2991,5.3241,5.3271,5.3352,5.3704,5.3719,5.3461,5.3474,5.3483,5.3489,0,0,0,0,0,0,0,5.2316,5.2364,5.284,5.2732,5.2741,5.2738,5.2773,5.3007,5.3119,5.2923,5.2921,5.296,5.3243,5.3331,5.336,5.3725,5.346,5.3479,5.3493,5.3501,5.4342,5.4351,0,0,0,0,0,0,5.2285,5.2346,5.2829,5.285,5.2515,5.2757,5.2795,5.2911,5.3116,5.3139,5.2967,5.2958,5.3298,5.3335,5.3373,5.3735,5.3483,5.3504,5.3516,5.4333,5.4344,5.4354,0,0,0,0,0,0,5.2271,5.2328,5.2815,5.2598,5.2659,5.2776,5.2907,5.2922,5.301,5.3149,5.317,5.3035,5.3293,5.3342,5.361,5.3747,5.3513,5.3533,5.4322,5.4336,5.4349,5.446,0,0,0,0,0,0,5.2252,5.2323,5.2432,5.26,5.2671,5.3042,5.2915,5.2935,5.3046,5.3037,5.3219,5.3242,5.329,5.3577,5.3631,5.3773,5.355,5.431,5.4328,5.4345,5.4445,5.4476,5.4503,0,0,0,0,0,5.2228,5.2452,5.2438,5.2496,5.2809,5.3049,5.3091,5.3138,5.3057,5.3171,5.3261,5.3236,5.3723,5.3605,5.3665,5.3816,5.4302,5.4323,5.4343,5.4431,5.447,5.4502,0,0,0,0,0,0,5.2301,5.2474,5.2461,5.2744,5.2882,5.3043,5.3187,5.3177,5.3344,5.3329,5.3385,5.3427,5.3698,5.3784,5.3649,5.4115,5.4002,5.4036,5.4049,5.4086,5.4114,5.4089,5.3568,0,0,0,0,0,5.2348,5.2524,5.2669,5.2905,5.2975,5.3069,5.3176,5.3201,5.3348,5.3407,5.3517,5.3665,5.3852,5.3973,5.4153,5.4457,5.4499,5.4591,5.462,5.4643,5.4672,5.4845,5.4888,5.4422,5.4422,5.4422,0,0,5.2451,5.2568,5.2676,5.2923,5.3032,5.3219,5.3119,5.3319,5.346,5.3439,5.3697,5.3784,5.3954,5.4241,5.4374,5.4322,5.481,5.4669,5.4687,5.4704,5.4871,5.4915,5.4954,5.4436,5.4434,5.4432,0,0,5.2733,5.2837,5.3047,5.3159,5.3326,5.3388,5.3439,5.3603,5.3658,5.3918,5.3908,5.4079,5.4398,5.452,5.4624,5.4958,5.4943,5.5016,5.5168,5.5335,5.5372,5.5405,5.5528,5.5571,5.5044,5.5044,5.5044,0,5.2841,5.3116,5.3158,5.3361,5.3472,5.3459,5.3676,5.3784,5.4003,5.4083,5.402,5.4423,5.4536,5.4855,5.4936,5.502,5.5084,5.4995,5.5362,5.5396,5.5427,5.5545,5.5591,5.5052,5.5051,5.505,5.505,0,5.3242,5.3434,5.3585,5.3792,5.3921,5.413,5.421,5.4336,5.4351,5.4422,5.469,5.4826,5.5034,5.5111,5.5129,5.5435,5.5398,5.5348,5.5237,5.5479,5.5591,5.5636,5.5063,5.5061,5.5058,5.5056,0,0,5.3578,5.3807,5.3862,5.3958,5.4143,5.4295,5.4507,5.4707,5.4816,5.4969,5.5151,5.5424,5.538,5.5498,5.553,5.5677,5.5938,5.5611,5.5616,5.5669,5.6289,5.6327,5.6378,5.5929,5.5937,5.5944,5.6276,0,5.388,5.4248,5.4295,5.4625,5.4806,5.4798,5.4984,5.512,5.5193,5.5362,5.5445,5.5638,5.5563,5.5636,5.578,5.5875,5.6064,5.5852,5.6105,5.6113,5.6063,5.6436,5.6475,5.6781,5.632,5.6327,5.6332,0,5.4281,5.4442,5.4789,5.4952,5.503,5.5195,5.5385,5.5544,5.5702,5.5746,5.5879,5.5894,5.612,5.5998,5.6312,5.6167,5.6274,5.6337,5.635,5.6377,5.6238,5.6476,5.688,5.6926,5.6401,5.6396,5.6391,0,5.4495,5.4799,5.5046,5.5129,5.5325,5.5442,5.553,5.5679,5.5798,5.5966,5.6045,5.6239,5.6346,5.6498,5.6567,5.6471,5.688,5.6762,5.6927,5.6925,5.7014,5.7008,5.7443,5.7079,5.7078,5.7077,5.7076,0,5.4829,5.5042,5.5145,5.5298,5.5539,5.5594,5.5833,5.5918,5.6051,5.6225,5.6232,5.6396,5.6476,5.6654,5.671,5.6965,5.7013,5.7059,5.7071,5.7059,5.7054,5.7131,5.7113,5.709,5.7087,5.7085,5.7082,0,5.5108,5.5185,5.5455,5.5619,5.5665,5.5837,5.598,5.6131,5.6203,5.6423,5.6479,5.6594,5.6805,5.6888,5.7146,5.7184,5.7479,5.7474,5.7425,5.7429,5.759,5.7575,5.8092,5.8165,5.775,5.7754,5.7757,0,5.5317,5.548,5.5662,5.5776,5.5868,5.6053,5.6174,5.6236,5.6363,5.6557,5.6687,5.6896,5.7066,5.7404,5.7515,5.7714,5.7716,5.7884,5.7746,5.773,5.7723,5.7713,5.7732,5.7909,5.7913,5.7917,5.792,0,5.5681,5.5711,5.5882,5.607,5.6213,5.6365,5.6512,5.6608,5.6693,5.6837,5.705,5.7182,5.7446,5.7655,5.7861,5.7958,5.7957,5.7962,5.8011,5.8001,5.7967,5.7991,5.7496,5.795,5.7947,5.7945,5.7943,5.7942,5.5934,5.608,5.6231,5.6424,5.6541,5.668,5.6831,5.6922,5.7099,5.7315,5.7343,5.7573,5.7733,5.8009,5.8115,5.83,5.8257,5.8327,5.8345,5.8362,5.8375,5.7936,5.8337,5.8336,5.8336,5.8335,5.8335,0,5.63,5.6397,5.6574,5.6779,5.6933,5.6912,5.7076,5.7208,5.7408,5.7555,5.7723,5.7971,5.8176,5.8303,5.851,5.8634,5.8639,5.8687,5.868,5.8703,5.84,5.8338,5.868,5.868,5.868,5.8679,5.8679,5.8679,5.6509,5.6757,5.6807,5.7116,5.7214,5.7436,5.7532,5.7662,5.778,5.8055,5.8223,5.8303,5.8445,5.8663,5.8852,5.8885,5.8963,5.9015,5.9045,5.876,5.8724,5.869,5.8632,5.903,5.9031,5.9333,5.9336,5.9338]},{"header":{"parameterUnit":"m.s-1","parameterCategory":1,"la1":30.2991,"la2":30.254,"lo1":-89.0895,"lo2":-89.0444,"dy":0.0017,"dx":0.0017,"nx":28,"ny":28,"refTime":"2025-01-10T09:00:00:Z","depth":0,"parameterNumber":3,"parameterNumberName":"V-component_of_WINDS"},"data":[0,0,0,0,0,0,0,0,0,0,0,0,0,0,0,0,0,0,0,0,0,0,0,0,0,0,0,0,0,0,0,0,0,0,0,0,0,0,0,0,0,0,0,0,0,0,0,0,0,0,0,0,0,0,0,0,0,0,-2.2121,-2.2118,0,-2.1865,-2.1862,-2.1859,-2.1763,-2.1764,-2.1765,-2.1765,-2.1474,-2.1465,-2.1457,0,0,0,0,0,0,0,0,0,0,0,0,0,-2.2497,-2.249,-2.2121,-2.2118,-2.2115,-2.1866,-2.1862,-2.1859,-2.1763,-2.1764,-2.1765,-2.1766,-2.1476,-2.1466,-2.1456,0,0,0,0,0,0,0,0,0,0,0,0,0,-2.2296,-2.2488,-2.2122,-2.2038,-2.2028,-2.1867,-2.1862,-2.1858,-2.1763,-2.1764,-2.1765,-2.1766,-2.148,-2.1467,-2.1454,-2.1349,0,0,-2.1415,-2.141,0,0,0,0,0,0,0,0,-2.2307,-2.2282,-2.2053,-2.2043,-2.2032,-2.1848,-2.1888,-2.1686,-2.1762,-2.1862,-2.1765,-2.1767,-2.1595,-2.1573,-2.1521,-2.1335,-2.1323,-2.1414,-2.1406,-2.1401,-2.1397,0,0,0,0,0,0,0,-2.2322,-2.2292,-2.2019,-2.205,-2.2037,-2.2003,-2.1976,-2.1849,-2.1723,-2.1854,-2.1846,-2.1819,-2.1589,-2.1534,-2.1513,-2.1319,-2.1414,-2.1403,-2.1395,-2.139,-2.1027,-2.1025,0,0,0,0,0,0,-2.2354,-2.2305,-2.2027,-2.2011,-2.2177,-2.1995,-2.1965,-2.1905,-2.1725,-2.1699,-2.1818,-2.1815,-2.1555,-2.1529,-2.1503,-2.1365,-2.1401,-2.1389,-2.1381,-2.1029,-2.1027,-2.1025,0,0,0,0,0,0,-2.2362,-2.233,-2.2037,-2.2156,-2.2117,-2.1988,-2.1921,-2.1899,-2.1844,-2.1698,-2.1672,-2.1787,-2.1555,-2.1521,-2.1389,-2.1354,-2.1383,-2.1371,-2.1031,-2.1028,-2.1026,-2.1092,0,0,0,0,0,0,-2.2373,-2.2334,-2.23,-2.2157,-2.2111,-2.1938,-2.1919,-2.1893,-2.1826,-2.182,-2.1662,-2.1636,-2.1553,-2.1409,-2.1376,-2.1337,-2.1361,-2.1034,-2.103,-2.1027,-2.1092,-2.1092,-2.1091,0,0,0,0,0,-2.2387,-2.2323,-2.2299,-2.2265,-2.2067,-2.1936,-2.1909,-2.1824,-2.1824,-2.1783,-2.1689,-2.1641,-2.1364,-2.1396,-2.1359,-2.1315,-2.1035,-2.1031,-2.1027,-2.1092,-2.1092,-2.1091,0,0,0,0,0,0,-2.2455,-2.2302,-2.2274,-2.2163,-2.2065,-2.1921,-2.1868,-2.1826,-2.1717,-2.1715,-2.1604,-2.1568,-2.1445,-2.1365,-2.1405,-2.12,-2.1195,-2.1183,-2.1258,-2.1256,-2.1256,-2.1276,-2.135,0,0,0,0,0,-2.246,-2.2376,-2.2242,-2.2156,-2.211,-2.1998,-2.1937,-2.1881,-2.177,-2.1724,-2.162,-2.1506,-2.1392,-2.1319,-2.1206,-2.108,-2.104,-2.103,-2.103,-2.103,-2.102,-2.0942,-2.0935,-2.101,-2.101,-2.1011,0,0,-2.2463,-2.2369,-2.2321,-2.2168,-2.2085,-2.1992,-2.1963,-2.1865,-2.1792,-2.1706,-2.1579,-2.1497,-2.1361,-2.1231,-2.1168,-2.1161,-2.099,-2.1024,-2.1026,-2.1015,-2.0937,-2.093,-2.0924,-2.1007,-2.1008,-2.1008,0,0,-2.2423,-2.2346,-2.2266,-2.2185,-2.2063,-2.1989,-2.1969,-2.1831,-2.1777,-2.1649,-2.1582,-2.1487,-2.1295,-2.1201,-2.1127,-2.1049,-2.0999,-2.1014,-2.1011,-2.0937,-2.0931,-2.0925,-2.0894,-2.0884,-2.1005,-2.1005,-2.1005,0,-2.2441,-2.2308,-2.2227,-2.2136,-2.2067,-2.1994,-2.1907,-2.1828,-2.1671,-2.1621,-2.1618,-2.1375,-2.1277,-2.1123,-2.1105,-2.1048,-2.1016,-2.1032,-2.094,-2.0933,-2.0926,-2.0895,-2.0884,-2.1008,-2.1008,-2.1007,-2.1007,0,-2.2334,-2.2242,-2.219,-2.2052,-2.1976,-2.1886,-2.1784,-2.1715,-2.1663,-2.1587,-2.1452,-2.1334,-2.1195,-2.1154,-2.1098,-2.0989,-2.0988,-2.0964,-2.0956,-2.0923,-2.0892,-2.088,-2.1012,-2.1011,-2.101,-2.1009,0,0,-2.233,-2.2151,-2.2133,-2.2068,-2.1927,-2.1849,-2.1751,-2.1626,-2.1567,-2.1459,-2.137,-2.1209,-2.1186,-2.1102,-2.1034,-2.0969,-2.0911,-2.0951,-2.0946,-2.0946,-2.0777,-2.0797,-2.0786,-2.0878,-2.0875,-2.0873,-2.0788,0,-2.2271,-2.2108,-2.2031,-2.1896,-2.1806,-2.1734,-2.1647,-2.1546,-2.147,-2.1374,-2.1284,-2.1173,-2.1152,-2.1101,-2.1033,-2.0934,-2.0875,-2.0938,-2.0784,-2.078,-2.0822,-2.077,-2.079,-2.0717,-2.0776,-2.0774,-2.0772,0,-2.2181,-2.2085,-2.1944,-2.1813,-2.1771,-2.1698,-2.1574,-2.1487,-2.1366,-2.1314,-2.1222,-2.1157,-2.1041,-2.1043,-2.0877,-2.0922,-2.0853,-2.0793,-2.0788,-2.0769,-2.0775,-2.0747,-2.0691,-2.068,-2.0752,-2.0754,-2.0755,0,-2.2191,-2.2024,-2.1919,-2.1865,-2.1709,-2.1658,-2.1588,-2.1471,-2.1399,-2.1286,-2.1237,-2.1109,-2.1038,-2.0935,-2.0834,-2.0845,-2.0676,-2.0669,-2.0622,-2.0625,-2.059,-2.0593,-2.0521,-2.0548,-2.0548,-2.0548,-2.0548,0,-2.2133,-2.2049,-2.1922,-2.1857,-2.1757,-2.1665,-2.1566,-2.1489,-2.1384,-2.1295,-2.1219,-2.1134,-2.1007,-2.0902,-2.082,-2.0693,-2.0661,-2.0609,-2.0588,-2.0616,-2.0623,-2.0569,-2.0571,-2.0545,-2.0546,-2.0546,-2.0547,0,-2.2128,-2.2041,-2.192,-2.1785,-2.1748,-2.168,-2.1558,-2.1486,-2.1407,-2.1295,-2.1262,-2.1133,-2.1007,-2.0897,-2.0725,-2.067,-2.0538,-2.0513,-2.0583,-2.0572,-2.0531,-2.0536,-2.042,-2.0398,-2.0442,-2.0442,-2.0442,0,-2.2097,-2.2032,-2.1892,-2.1832,-2.1767,-2.167,-2.1599,-2.1502,-2.1428,-2.1285,-2.1228,-2.1099,-2.0991,-2.079,-2.0674,-2.0541,-2.0511,-2.0479,-2.049,-2.0519,-2.0507,-2.0513,-2.0503,-2.0479,-2.0479,-2.0479,-2.0479,0,-2.205,-2.201,-2.1917,-2.1806,-2.1726,-2.1631,-2.1533,-2.1485,-2.1368,-2.1287,-2.1164,-2.108,-2.091,-2.0779,-2.0634,-2.0549,-2.0491,-2.0478,-2.0459,-2.0486,-2.053,-2.0504,-2.0582,-2.048,-2.048,-2.048,-2.048,-2.048,-2.2029,-2.1968,-2.1861,-2.1756,-2.1675,-2.1585,-2.1512,-2.1426,-2.1324,-2.1187,-2.1131,-2.1003,-2.0875,-2.0677,-2.0593,-2.0483,-2.0473,-2.0447,-2.044,-2.0435,-2.0439,-2.0549,-2.0455,-2.0455,-2.0455,-2.0455,-2.0455,0,-2.1977,-2.1906,-2.1812,-2.1682,-2.1598,-2.1562,-2.1451,-2.138,-2.1272,-2.1164,-2.1061,-2.0914,-2.0787,-2.0662,-2.0524,-2.046,-2.043,-2.0427,-2.043,-2.041,-2.0457,-2.0486,-2.0454,-2.0454,-2.0454,-2.0454,-2.0454,-2.0454,-2.1941,-2.1835,-2.1782,-2.163,-2.1555,-2.1438,-2.1377,-2.129,-2.1204,-2.1049,-2.0946,-2.0869,-2.075,-2.0604,-2.0482,-2.0447,-2.0398,-2.0403,-2.036,-2.0406,-2.0407,-2.0409,-2.0436,-2.0393,-2.0393,-2.0322,-2.0321,-2.0321]}]]